Regional Weather Roundup
Issued by NWS

Home | Current Version | Previous Version | Text Only | Print | Product List | Glossary Off
Versions: 1 2 3 4 5 6 7 8 9 10 11 12 13 14 15 16 17 18 19 20 21 22 23 24 25 26 27 28 29 30 31 32 33 34 35 36 37 38 39 40 41 42 43 44 45 46 47 48 49 50

000
ASUS43 KTOP 251208
RWRKS

WEATHER ROUNDUP FOR KANSAS
NATIONAL WEATHER SERVICE GOODLAND KS
700 AM CDT MON JUL 25 2016

NOTE:  "FAIR" INDICATES FEW OR NO CLOUDS BELOW 12,000 FEET WITH NO
SIGNIFICANT WEATHER AND/OR OBSTRUCTIONS TO VISIBILITY.

KSZ001>006-013>018-027>032-041>047-251300-
NORTHWEST KANSAS

CITY           SKY/WX    TMP DP  RH WIND       PRES   REMARKS
GOODLAND       CLEAR     59  57  93 W3        30.19R
6HR MIN TEMP:  59; 6HR MAX TEMP:  66;

HAYS           CLOUDY    66  57  72 N17G23    30.09R
HILL CITY      RAIN      66  65  96 N5        30.10F FOG
6HR MIN TEMP:  65; 6HR MAX TEMP:  75; 6HR PCP:  0.11;

RUSSELL        LGT RAIN  67  66  97 N15       30.08R
6HR MIN TEMP:  66; 6HR MAX TEMP:  73; 6HR PCP:  0.19;

$$

KSZ061>065-074>080-084>089-251300-
SOUTHWEST KANSAS

CITY           SKY/WX    TMP DP  RH WIND       PRES   REMARKS
DODGE CITY     CLOUDY    67  66  97 NW3       30.07F FOG
6HR MIN TEMP:  67; 6HR MAX TEMP:  74; 6HR PCP:  0.26;

ELKHART          N/A     66  62  87 NW6         N/A
GARDEN CITY    PTCLDY    65  63  93 CALM      30.11R
6HR MIN TEMP:  65; 6HR MAX TEMP:  67; 6HR PCP:  0.99;

GREAT BEND     CLOUDY    70  63  78 NE15      30.06R
LIBERAL        PTCLDY    66  63  88 N5        30.13R
PRATT          CLOUDY    67  65  94 NE3       30.02R
6HR MIN TEMP:  66; 6HR MAX TEMP:  80; 6HR PCP:  0.25;

$$

KSZ066>073-081>083-090>101-251300-
SOUTHEAST KANSAS

CITY           SKY/WX    TMP DP  RH WIND       PRES   REMARKS
CHANUTE        TSTM      72  70  93 N15G23    30.03R FOG
6HR MIN TEMP:  73; 6HR MAX TEMP:  83; 6HR PCP:  0.10;

COFFEYVILLE    TSTM      79  75  87 SE8       29.98R FOG
6HR MIN TEMP:  78; 6HR MAX TEMP:  86; 6HR PCP:  0.15;

HUTCHINSON     LGT RAIN  73  69  87 N14       30.07R
6HR MIN TEMP:  73; 6HR MAX TEMP:  81; 6HR PCP: TRACE;

MEDICINE LODGE   N/A     71  67  87 NE16      29.95F
NEWTON         CLOUDY    68  66  94 NE13G21   30.10S
PARSONS        CLOUDY    79  71  76 CALM      30.00R
6HR MIN TEMP:  79; 6HR MAX TEMP:  85; 6HR PCP: TRACE;

WICHITA INTL   LGT RAIN  74  70  87 N20       30.05R
6HR MIN TEMP:  74; 6HR MAX TEMP:  88; 6HR PCP:  0.08;

WICHITA JABRA  CLOUDY    71  69  93 N21G28    30.08R
6HR MIN TEMP:  71; 6HR MAX TEMP:  81; 6HR PCP:  0.03;

WICHITA MCCONL LGT RAIN  74  71  87 N14       30.08R
WINFIELD       LGT RAIN  74  72  93 N10       30.06R
6HR MIN TEMP:  74; 6HR MAX TEMP:  84; 6HR PCP:  0.24;

$$

KSZ007>012-019>026-033>040-048>060-102>105-251300-
NORTHEAST KANSAS

CITY           SKY/WX    TMP DP  RH WIND       PRES   REMARKS
CONCORDIA      LGT RAIN  68  65  90 N5        30.14R FOG
6HR MIN TEMP:  68; 6HR MAX TEMP:  71; 6HR PCP:  0.24;

EMPORIA        TSTM      70  69  97 N9        30.05R
6HR MIN TEMP:  69; 6HR MAX TEMP:  78; 6HR PCP:  0.51;

LAWRENCE       CLOUDY    74  67  78 NE8       30.04F
6HR MIN TEMP:  73; 6HR MAX TEMP:  76;

MANHATTAN      RAIN      70  68  93 NW7       30.09R FOG
6HR MIN TEMP:  70; 6HR MAX TEMP:  75; 6HR PCP:  0.38;

MARYSVILLE     CLOUDY    66  64  94 S5        30.10S
OLATHE IND     CLOUDY    74  69  85 NE7       30.05R
6HR MIN TEMP:  74; 6HR MAX TEMP:  78; 6HR PCP:  0.02;

OLATHE EXE     CLOUDY    73  69  87 NE8       30.04F
6HR MIN TEMP:  73; 6HR MAX TEMP:  79; 6HR PCP:  0.04;

SALINA         LGT RAIN  72  69  90 E9        30.09R
6HR MIN TEMP:  72; 6HR MAX TEMP:  79; 6HR PCP:  0.13;

TOPEKA BILLARD LGT RAIN  72  69  90 NW6       30.05S
6HR MIN TEMP:  72; 6HR MAX TEMP:  78; 6HR PCP:  0.02;

TOPEKA FORBES  LGT RAIN  73  69  87 CALM      30.06S
6HR MIN TEMP:  73; 6HR MAX TEMP:  79; 6HR PCP:  0.02;

$$



USA.gov is the U.S. government's official web portal to all federal, state and local government web resources and services.